Other Public Products
Issued by NWS Grand Forks, ND

Home | Current Version | Previous Version | Text Only | Print | Product List | Glossary On
Versions: 1 2 3 4 5 6 7 8 9 10 11 12 13 14 15 16 17 18 19 20 21 22 23 24 25 26 27 28 29 30 31 32 33 34 35 36 37 38 39 40 41 42 43 44 45 46 47 48 49 50
000
FPUS83 KFGF 111431
OPUFGF
PRAIRIE TO PINES WEATHER ROUNDUP
NATIONAL WEATHER SERVICE EASTERN NORTH DAKOTA/GRAND FORKS ND
800 AM CST SUN DEC 11 2016

 **SATELLITE DATA USED TO AUGMENT SKY COVER AT AUTOMATED STATIONS**
 *****  WEATHER ACROSS EASTERN NORTH DAKOTA  *****

CITY           SKY/WX    TMP DP  RH WIND       PRES   REMARKS
GRAND FORKS    LGT SNOW   4  -1  80 NE10      30.05F VSB 1   WCI -11
GRAND FORKS AF LGT SNOW   1  -2  85 NE9       30.03F WCI -14
GRAND CITY NWS NOT AVBL
BUXTON           N/A     32  30  94 NE9         N/A  WCI  24
DEVILS LAKE    LGT SNOW   0  -4  85 NE6       30.00S FOG     WCI -12
FARGO          LGT SNOW  11   6  81 NE9       29.97F WCI  -2
WAHPETON ARPT  CLOUDY    12   9  85 E5        29.97R WCI   4
$$

 *****  WEATHER ACROSS CENTRAL AND WESTERN NORTH DAKOTA  *****

CITY           SKY/WX    TMP DP  RH WIND       PRES   REMARKS
JAMESTOWN      LGT SNOW   1  -3  83 N5        29.94S FOG     WCI  -9
BISMARCK       FLURRIES   1  -4  79 N3        29.96F
MINOT          FLURRIES  -3  -8  79 N9        29.99S WCI -19
MINOT AFB      FLURRIES  -6  -9  84 N8        30.00R WCI -21
GARRISON         N/A     -2  -8  76 NE5       29.95S WCI -12
WILLISTON      CLOUDY   -11 -16  78 N7        29.99S WCI -26
DICKINSON      CLOUDY     2  -3  80 NW14      29.86R WCI -16
HETTINGER      CLOUDY     9   3  77 NW18      29.86S WCI -10
$$

 *****  OTHER OBSERVATIONS NORTHEAST NORTH DAKOTA  *****

CITY           SKY/WX    TMP DP  RH WIND       PRES   REMARKS
WALHALLA       LGT SNOW  -4  -4 100 N8        30.12F WCI -19
LANGDON        LGT SNOW  -2  -8  78 NE9       30.00F WCI -18
CAVALIER       LGT SNOW   0  -2  92 N9        30.10F VSB 3/4 WCI -16
GRAFTON        LGT SNOW   1  -2  85 NE9       30.09F WCI -14
CANDO          LGT SNOW   1  -2  85 NE6       30.03F WCI -10
FORT TOTTEN      N/A     -1  -4  85 NE2       29.95S
ROLLA          LGT SNOW  -2  -8  78 N8        30.00S WCI -17
RUGBY          LGT SNOW   0  -4  85 NE6       30.00F WCI -12
 ***** THE ABOVE OBSERVATIONS ARE NON NWS ARE NOT QUALITY
        CONTROLLED AND MAY MIS-REPORT RAIN FOR SNOW...
$$

 *****  OTHER OBSERVATIONS SOUTHEAST NORTH DAKOTA *****

CITY           SKY/WX    TMP DP  RH WIND       PRES   REMARKS
COOPERSTOWN    LGT SNOW   0  -4  85 N9        29.98R WCI -16
VALLEY CITY    LGT SNOW   1   0  92 NE9       29.96S WCI -14
OAKES          NOT AVBL
GWINNER        CLOUDY    10   9  92 NE8       29.93F WCI  -1
SHEYENNE NWR     N/A      7   2  80 N5        29.95S WCI  -2
BUFFALO          N/A      4  -1  80 NE10        N/A  WCI -12
WYNDMERE         N/A     10   9  92 NE6         N/A  WCI   1
 ***** THE ABOVE OBSERVATIONS ARE NON NWS ARE NOT QUALITY
       CONTROLLED AND MAY MIS-REPORT RAIN FOR SNOW...
$$

  *****  WEATHER ACROSS NORTHERN MINNESOTA  *****

CITY           SKY/WX    TMP DP  RH WIND       PRES   REMARKS
FLAG ISLAND    NOT AVBL
WARROAD        CLOUDY     1  -2  85 E12       30.08F WCI -15
ROSEAU         CLOUDY     0  -6  78 E8        30.09S WCI -15
HALLOCK        LGT SNOW   1  -2  85 E7        30.09F WCI -11
THF RVR FALLS  LGT SNOW   3  -1  83 E13       30.04F FOG     WCI -14
HALSTAD          N/A      7   3  84 NE9         N/A  WCI  -7
FOSSTON        LGT SNOW   3   0  85 E9        29.99F VSB 1   WCI -11
BAUDETTE       CLOUDY    -2  -7  79 E7        30.08F WCI -15
WASKISH        CLOUDY    -2  -6  84 E5        30.06R WCI -12
CROOKSTON      LGT SNOW   7   3  85 E8        30.05S VSB 3/4 WCI  -6
$$
  *****  WEATHER ACROSS CENTRAL AND WEST MINNESOTA  *****

CITY           SKY/WX    TMP DP  RH WIND       PRES   REMARKS
BEMIDJI        LGT SNOW   2  -1  85 E7        30.01S VSB 3/4 WCI -10
PARK RAPIDS    SNOW       7   0  73 NE8       29.96F VSB 1/2 WCI  -6
WADENA         LGT SNOW   7   3  85 NE8       29.94F WCI  -6
DETROIT LAKES  LGT SNOW  10   7  85 E5        29.96F WCI   2
MOORHEAD       LGT SNOW   9   7  92 N3        29.99S
FERGUS FALLS   LGT SNOW  10   7  85 E8        29.99S WCI  -1
ELBOW LAKE     LGT SNOW  11   8  87 E10       29.93S WCI  -2
MORRIS MN      LGT SNOW  12   9  85 E14       29.91F WCI  -3
STAPLES        NOT AVBL
WHEATON        LGT SNOW  16  12  86 E5        29.96S WCI   9
$$
  *****  WEATHER ELSEWHERE ACROSS MINNESOTA  *****

CITY           SKY/WX    TMP DP  RH WIND       PRES   REMARKS
DULUTH         SNOW      14  10  84 E12       30.01F VSB 1/2 WCI   0
INTRNTL FALLS  CLOUDY     0  -5  79 E5        30.09F WCI -10
ELY            CLOUDY     1  -2  85 CALM      30.06S
CLOQUET        LGT SNOW  10   7  85 E6        30.02S WCI   1
BRAINERD       LGT SNOW  10   7  87 NE6       29.98F VSB 3/4 WCI   0
HIBBING        CLOUDY     3   0  87 CALM      30.04S
ALEXANDRIA     LGT SNOW  12   8  84 E13       29.91F FOG     WCI  -3
SAINT CLOUD    LGT SNOW  13  10  88 NE7       29.95F FOG     WCI   3
MINNEAPOLIS    LGT SNOW  17  14  88 NE7       29.95S VSB 3/4 WCI   8
$$

  *****  WEATHER ACROSS SOUTH DAKOTA  *****

CITY           SKY/WX    TMP DP  RH WIND       PRES   REMARKS
SIOUX FALLS    CLOUDY    22  20  92 N9        29.84R WCI  12
BROOKINGS      CLOUDY    13  10  88 NE6       29.84S WCI   4
WATERTOWN      CLOUDY    11   8  88 E7        29.84F WCI   0
HURON          CLOUDY    14  11  87 NW10      29.90S WCI   1
SISSETON         N/A     12   9  87 E5        29.92F WCI   4
ABERDEEN       CLOUDY    10   4  76 N8        29.92F WCI  -2
MITCHELL       CLOUDY    17  14  88 NW15      29.90R WCI   2
PIERRE         FLURRIES  10   5  80 NW16      29.93S WCI  -7
MOBRIDGE       CLOUDY     6  -1  73 W9        29.91R WCI  -8
RAPID CITY     CLOUDY     1  -4  79 W5        29.85F WCI  -9
$$

  *****  SOME WEATHER IN NEARBY STATES *****

CITY           SKY/WX    TMP DP  RH WIND       PRES   REMARKS
GLASGOW MT     CLOUDY   -11 -15  82 W3        29.97S
GREAT FALLS MT CLOUDY     0  -5  79 CALM      29.81F
CHEYENNE WY    CLOUDY    22  20  92 N5        29.80R WCI  16
SCOTTSBLUFF NE CLOUDY    30  16  56 NW12      29.86R WCI  20
OMAHA NE       CLOUDY    31  23  72 N3        29.78R
DES MOINES IA  CLOUDY    31  26  82 SE9       29.81F WCI  23
DAVENPORT IA   FRZ RAIN  29  26  89 SE10      29.92F FOG     WCI  20
CHICAGO IL     LGT SNOW  27  23  85 SE12      30.02S FOG     WCI  17
EAU CLAIRE WI  SNOW      16  14  92 E8        29.97F VSB 1/2 WCI   5
LA CROSSE WI   SNOW      22  18  85 NE3       29.96R VSB 1/2
$$

  *****  SOME NATIONAL WEATHER *****

CITY           SKY/WX    TMP DP  RH WIND       PRES   REMARKS
LA GUARDIA NY  CLOUDY    32  16  51 NW5       30.57R
RALEIGH NC     MOSUNNY   34  17  50 SE6       30.52R
ATLANTA GA     CLOUDY    37  24  59 E8        30.39R
NEW ORLEANS LA MOSUNNY   51  46  83 E3        30.24R
OKLAHOMA CITY  CLOUDY    53  50  89 S25G31    29.73F
ALBUQUERQUE NM CLOUDY    38  27  64 S6        30.03R
SALT LAKE CITY MOCLDY    34  32  92 SW6       30.07R
LOS ANGELES CA MOCLDY    60  58  92 SE3       30.11R
BOISE ID       MOCLDY    26  25  96 SE7       30.08S WCI  18
SEATTLE WA     LGT RAIN  41  37  86 S13G25    29.90F
$$

*** WEATHER ACROSS MANITOBA...SASKATCHEWAN AND ONTARIO ***
                ***ONTARIO***

CITY           SKY/WX    TMP DP  RH WIND       PRES   REMARKS
GERALDTON      CLOUDY     0  -4  85 S3        30.20F
THUNDER BAY    MOCLDY     1  -2  85 W2        30.21F
SIOUX LOOKOUT  MOCLDY   -22 -27  76 CALM      30.16S
TORONTO        FLURRIES  25  18  74 SW7       30.35S WCI  17
BIG TROUT LK   FLURRIES -13 -17  84 SW9       30.18S WCI -31
PICKLE LAKE    LGT SNOW -17 -22  76 S5        30.17S WCI -29
DRYDEN         CLOUDY   -15 -18  84 NE5       30.13F WCI -27
KENORA         MOCLDY    -8 -11  84 E8        30.11F WCI -23
$$
                *** MANITOBA***

CITY           SKY/WX    TMP DP  RH WIND       PRES   REMARKS
BRANDON        CLOUDY   -11 -17  77 E6        30.09F WCI -25
DAUPHIN        CLEAR    -22 -27  76 SW6       30.12F WCI -38
ISLAND LAKE    FLURRIES  -8 -11  84 S8        30.12  WCI -23
PILOT MOUND      N/A     -6  -9  84 NE2         N/A
THE PAS        PTCLDY   -11 -17  77 S7        30.03F WCI -26
THOMPSON       PTCLDY   -15 -20  76 S5        29.98F WCI -27
WINNIPEG       CRYSTALS -11 -17  77 NE7       30.15F WCI -26
LYNN LAKE      FLURRIES -11 -15  84 SW6       29.82F WCI -25
CHURCHILL      CLEAR    -15 -20  76 SW10      29.91F WCI -35
GILLAM         PTCLDY   -13 -18  77 SW8       30.01F WCI -30
$$
                ***SASKATCHEWAN***

CITY           SKY/WX    TMP DP  RH WIND       PRES   REMARKS
ESTEVAN        PTCLDY   -13 -17  84 NW2       30.00R
KINDERSLEY     CLOUDY     0  -6  78 NW13G18   29.92F WCI -18
LLOYDMINSTER   FLURRIES -11 -17  77 NW16G22   29.95R WCI -34
PRINCE ALBERT  FLURRIES  -4  -9  77 SW9       29.94F WCI -20
REGINA         MOCLDY    -4 -11  71 S7        29.98F WCI -18
YORKTON        CLEAR    -18 -24  76 SE3       30.02F   C1F1C2F2C3F3C4F4C5F5C6F6C7F7C8F8C9F9CaFaCbFbCcFcCdFdCe!


USA.gov is the U.S. government's official web portal to all federal, state and local government web resources and services.